Location: Grand Rapids
(42.9630°N, 85.6680°W)
Time: 08:06:18
(UTC-04:00)

Tiros 1 - Pass Details

Date: 25 April 2025
Orbit: 620 x 652 km, 48.4° (Epoch: 13 May)

Event Time Altitude Azimuth Distance (km) Brightness Sun altitude
Exits shadow 05:10:08 28° 248° (WSW) 1,217 8.0 -16.1°
Maximum altitude 05:12:38 84° 335° (NNW) 658 7.1 -15.7°
Drops below altitude 10° 05:17:24 10° 64° (ENE) 2,057 11.1 -15.0°
Sets 05:19:45 0° 65° (ENE) 2,970 12.3 -14.7°
